Location: Spaichingen
(48.0400°N, 8.4300°E)
Time: 11:47:17
(UTC+02:00)

ISS - Visible Passes

Search period start: 20 September 2020 00:00
Search period end: 30 September 2020 00:00
Orbit: 419 x 420 km, 51.6° (Epoch: 20 September)

Date Brightness Start Highest point End Pass type
(mag) Time Alt. Az. Time Alt. Az. Time Alt. Az.
20 Sep -2.9 20:04:37 10° SSW 20:07:41 33° SE 20:10:46 10° E visible
20 Sep -3.0 21:41:02 10° W 21:43:52 53° WNW 21:43:52 53° WNW visible
21 Sep -3.8 20:53:35 10° WSW 20:56:58 81° NNW 20:58:30 30° ENE visible
21 Sep -0.7 22:30:47 10° WNW 22:31:28 15° WNW 22:31:28 15° WNW visible
22 Sep -3.8 20:06:12 10° WSW 20:09:33 74° SSE 20:12:56 10° ENE visible
22 Sep -2.5 21:43:16 10° W 21:45:58 41° NW 21:45:58 41° NW visible
23 Sep -3.1 20:55:44 10° W 20:59:02 51° NNW 21:00:25 29° NE visible
23 Sep -0.5 22:32:55 10° WNW 22:33:23 13° WNW 22:33:23 13° WNW visible
24 Sep -3.4 20:08:12 10° W 20:11:33 62° NNW 20:14:48 11° ENE visible
24 Sep -2.1 21:45:26 10° WNW 21:47:46 34° NW 21:47:46 34° NW visible
25 Sep -2.9 20:57:54 10° WNW 21:01:09 43° N 21:02:06 33° NE visible
25 Sep -0.3 22:34:54 10° WNW 22:35:03 11° WNW 22:35:03 11° WNW visible
26 Sep -2.9 20:10:21 10° W 20:13:36 45° N 20:16:25 13° ENE visible
26 Sep -1.8 21:47:26 10° WNW 21:49:22 30° NW 21:49:22 30° NW visible
27 Sep -3.2 20:59:57 10° WNW 21:03:14 47° N 21:03:40 44° NE visible
28 Sep -3.0 20:12:26 10° WNW 20:15:41 43° N 20:17:58 17° ENE visible
28 Sep -1.5 21:49:19 10° WNW 21:50:55 26° WNW 21:50:55 26° WNW visible
29 Sep -3.7 21:01:51 10° WNW 21:05:13 69° NNE 21:05:14 69° NNE visible
